When you browse on this site, cookies collect data to enhance your experience and personalize the content and advertising you see.
Visit our Privacy Policy to learn more. By continuing to use the site, you agree to this use of cookies and data.

Stündliche Wetter Tymoshenko

Heute, 10 Juli, Freitag

Zeit Temperatur Niederschläge Wind Luftdruck Luftfeuchtigkeit
00:00 +19°C° 0 mm 2 m/S 756 mmHg 61%
01:00 +18°C° 0 mm 2 m/S 756 mmHg 61%
02:00 +18°C° 0 mm 2 m/S 756 mmHg 61%
03:00 +18°C° 0 mm 2 m/S 756 mmHg 62%
04:00 +18°C° 0 mm 2 m/S 756 mmHg 64%
05:00 +19°C° 0 mm 2 m/S 756 mmHg 65%
06:00 +21°C° 0 mm 3 m/S 756 mmHg 58%
07:00 +23°C° 0 mm 4 m/S 757 mmHg 52%
08:00 +26°C° 0 mm 5 m/S 757 mmHg 45%
09:00 +28°C° 0 mm 5 m/S 757 mmHg 42%
10:00 +29°C° 0 mm 5 m/S 757 mmHg 38%
11:00 +30°C° 0 mm 5 m/S 757 mmHg 35%
12:00 +30°C° 0 mm 6 m/S 757 mmHg 35%
13:00 +30°C° 0 mm 6 m/S 757 mmHg 35%
14:00 +32°C° 0 mm 6 m/S 756 mmHg 34%
15:00 +30°C° 0 mm 6 m/S 756 mmHg 35%
16:00 +30°C° 0 mm 6 m/S 756 mmHg 35%
17:00 +29°C° 0 mm 5 m/S 756 mmHg 35%
18:00 +27°C° 0 mm 5 m/S 756 mmHg 41%
19:00 +25°C° 0 mm 4 m/S 756 mmHg 48%
20:00 +22°C° 0 mm 3 m/S 756 mmHg 55%
21:00 +22°C° 0 mm 3 m/S 756 mmHg 59%
22:00 +21°C° 0 mm 2 m/S 756 mmHg 62%
23:00 +20°C° 0 mm 2 m/S 756 mmHg 66%

Morgen, 11 Juli, Samstag

Zeit Temperatur Niederschläge Wind Luftdruck Luftfeuchtigkeit
00:00 +20°C° 0 mm 2 m/S 756 mmHg 67%
01:00 +20°C° 0 mm 2 m/S 756 mmHg 68%
02:00 +20°C° 0 mm 2 m/S 756 mmHg 70%
03:00 +20°C° 0 mm 2 m/S 756 mmHg 70%
04:00 +20°C° 0 mm 2 m/S 756 mmHg 71%
05:00 +20°C° 0 mm 2 m/S 755 mmHg 72%
06:00 +22°C° 0 mm 3 m/S 755 mmHg 63%
07:00 +26°C° 0 mm 4 m/S 756 mmHg 55%
08:00 +28°C° 0 mm 5 m/S 756 mmHg 47%
09:00 +29°C° 0 mm 5 m/S 755 mmHg 47%
10:00 +29°C° 0 mm 6 m/S 755 mmHg 47%
11:00 +30°C° 0 mm 7 m/S 755 mmHg 47%
12:00 +30°C° 0 mm 7 m/S 755 mmHg 45%
13:00 +32°C° 0 mm 7 m/S 754 mmHg 43%
14:00 +32°C° 0 mm 7 m/S 754 mmHg 42%
15:00 +30°C° 0 mm 7 m/S 754 mmHg 41%
16:00 +30°C° 0 mm 6 m/S 753 mmHg 41%
17:00 +29°C° 0 mm 6 m/S 753 mmHg 41%
18:00 +27°C° 0 mm 5 m/S 753 mmHg 46%
19:00 +26°C° 0 mm 4 m/S 753 mmHg 52%
20:00 +24°C° 0 mm 3 m/S 753 mmHg 57%
21:00 +22°C° 0 mm 3 m/S 752 mmHg 61%
22:00 +21°C° 0 mm 3 m/S 752 mmHg 65%
23:00 +21°C° 0 mm 3 m/S 752 mmHg 69%

übermorgen, 12 Juli, Sonntag

Zeit Temperatur Niederschläge Wind Luftdruck Luftfeuchtigkeit
00:00 +21°C° 0 mm 3 m/S 752 mmHg 70%
01:00 +21°C° 0 mm 3 m/S 751 mmHg 71%
02:00 +21°C° 0 mm 3 m/S 751 mmHg 72%
03:00 +22°C° 0 mm 3 m/S 751 mmHg 73%
04:00 +22°C° 0 mm 3 m/S 751 mmHg 75%
05:00 +22°C° 0 mm 3 m/S 750 mmHg 76%
06:00 +26°C° 0 mm 4 m/S 750 mmHg 68%
07:00 +28°C° 0 mm 5 m/S 750 mmHg 60%
08:00 +32°C° 0 mm 6 m/S 750 mmHg 52%
09:00 +33°C° 0 mm 6 m/S 750 mmHg 47%
10:00 +34°C° 0 mm 6 m/S 750 mmHg 43%
11:00 +35°C° 0 mm 6 m/S 750 mmHg 39%
12:00 +35°C° 0 mm 6 m/S 750 mmHg 39%
13:00 +36°C° 0 mm 6 m/S 750 mmHg 38%
14:00 +36°C° 0 mm 6 m/S 749 mmHg 38%
15:00 +35°C° 0 mm 6 m/S 749 mmHg 38%
16:00 +35°C° 0 mm 5 m/S 749 mmHg 39%
17:00 +35°C° 0 mm 5 m/S 748 mmHg 39%
18:00 +33°C° 0.1 mm 4 m/S 748 mmHg 46%
19:00 +30°C° 0.1 mm 3 m/S 748 mmHg 53%
20:00 +28°C° 0.1 mm 3 m/S 748 mmHg 59%
21:00 +27°C° 0.4 mm 2 m/S 748 mmHg 67%
22:00 +25°C° 0.4 mm 2 m/S 748 mmHg 75%
23:00 +24°C° 0.4 mm 2 m/S 747 mmHg 83%

13 Juli, Montag

Zeit Temperatur Niederschläge Wind Luftdruck Luftfeuchtigkeit
00:00 +24°C° 0.2 mm 2 m/S 747 mmHg 84%
01:00 +24°C° 0.2 mm 2 m/S 747 mmHg 85%
02:00 +24°C° 0.2 mm 2 m/S 747 mmHg 86%
03:00 +24°C° 0.1 mm 2 m/S 747 mmHg 86%
04:00 +24°C° 0.1 mm 1 m/S 747 mmHg 85%
05:00 +24°C° 0.1 mm 1 m/S 746 mmHg 85%
06:00 +25°C° 0.4 mm 2 m/S 746 mmHg 79%
07:00 +26°C° 0.4 mm 2 m/S 746 mmHg 72%
08:00 +28°C° 0.4 mm 2 m/S 746 mmHg 66%
09:00 +30°C° 0.3 mm 3 m/S 747 mmHg 57%
10:00 +31°C° 0.3 mm 3 m/S 747 mmHg 49%
11:00 +34°C° 0.3 mm 3 m/S 747 mmHg 41%
12:00 +34°C° 0.1 mm 3 m/S 747 mmHg 41%
13:00 +34°C° 0.1 mm 3 m/S 747 mmHg 42%
14:00 +34°C° 0.1 mm 4 m/S 746 mmHg 42%
15:00 +32°C° 1.4 mm 4 m/S 746 mmHg 47%
16:00 +30°C° 1.4 mm 4 m/S 746 mmHg 53%
17:00 +28°C° 1.4 mm 4 m/S 746 mmHg 59%
18:00 +27°C° 1 mm 4 m/S 746 mmHg 64%
19:00 +26°C° 1 mm 3 m/S 747 mmHg 69%
20:00 +24°C° 1 mm 2 m/S 747 mmHg 75%
21:00 +24°C° 0 mm 3 m/S 747 mmHg 76%
22:00 +22°C° 0 mm 4 m/S 747 mmHg 77%
23:00 +22°C° 0 mm 4 m/S 747 mmHg 77%

14 Juli, Dienstag

Zeit Temperatur Niederschläge Wind Luftdruck Luftfeuchtigkeit
00:00 +21°C° 0.1 mm 4 m/S 748 mmHg 81%
01:00 +20°C° 0.1 mm 4 m/S 748 mmHg 84%
02:00 +19°C° 0.1 mm 4 m/S 748 mmHg 87%
03:00 +19°C° 0.1 mm 4 m/S 748 mmHg 86%
04:00 +19°C° 0.1 mm 3 m/S 748 mmHg 85%
05:00 +18°C° 0.1 mm 3 m/S 748 mmHg 84%
06:00 +19°C° 0 mm 3 m/S 749 mmHg 81%
07:00 +19°C° 0 mm 4 m/S 749 mmHg 77%
08:00 +19°C° 0 mm 4 m/S 749 mmHg 73%
09:00 +21°C° 0 mm 5 m/S 750 mmHg 66%
10:00 +22°C° 0 mm 5 m/S 750 mmHg 60%
11:00 +23°C° 0 mm 6 m/S 750 mmHg 54%
12:00 +23°C° 0 mm 6 m/S 750 mmHg 53%
13:00 +24°C° 0 mm 6 m/S 750 mmHg 52%
14:00 +24°C° 0 mm 6 m/S 750 mmHg 51%
15:00 +24°C° 0 mm 6 m/S 750 mmHg 51%
16:00 +23°C° 0 mm 6 m/S 750 mmHg 52%
17:00 +23°C° 0 mm 6 m/S 750 mmHg 52%
18:00 +22°C° 0 mm 5 m/S 751 mmHg 55%
19:00 +21°C° 0 mm 4 m/S 751 mmHg 58%
20:00 +20°C° 0 mm 3 m/S 751 mmHg 61%
21:00 +19°C° 0 mm 3 m/S 751 mmHg 64%
22:00 +18°C° 0 mm 3 m/S 751 mmHg 67%
23:00 +18°C° 0 mm 3 m/S 752 mmHg 70%

15 Juli, Mittwoch

Zeit Temperatur Niederschläge Wind Luftdruck Luftfeuchtigkeit
00:00 +17°C° 0 mm 3 m/S 752 mmHg 73%
01:00 +17°C° 0 mm 3 m/S 752 mmHg 75%
02:00 +17°C° 0 mm 3 m/S 752 mmHg 78%
03:00 +17°C° 0 mm 2 m/S 752 mmHg 78%
04:00 +17°C° 0 mm 2 m/S 752 mmHg 78%
05:00 +17°C° 0 mm 2 m/S 752 mmHg 78%
06:00 +19°C° 0 mm 3 m/S 752 mmHg 71%
07:00 +20°C° 0 mm 4 m/S 752 mmHg 64%
08:00 +22°C° 0 mm 4 m/S 753 mmHg 57%
09:00 +23°C° 0 mm 4 m/S 753 mmHg 53%
10:00 +25°C° 0 mm 4 m/S 753 mmHg 50%
11:00 +26°C° 0 mm 4 m/S 753 mmHg 47%
12:00 +26°C° 0 mm 5 m/S 753 mmHg 44%
13:00 +27°C° 0 mm 5 m/S 752 mmHg 42%
14:00 +28°C° 0 mm 5 m/S 752 mmHg 39%
15:00 +27°C° 0 mm 5 m/S 752 mmHg 41%
16:00 +27°C° 0 mm 5 m/S 752 mmHg 43%
17:00 +26°C° 0 mm 5 m/S 752 mmHg 44%
18:00 +25°C° 0 mm 4 m/S 752 mmHg 49%
19:00 +22°C° 0 mm 3 m/S 752 mmHg 53%
20:00 +21°C° 0 mm 2 m/S 752 mmHg 58%
21:00 +20°C° 0 mm 2 m/S 752 mmHg 62%
22:00 +19°C° 0 mm 2 m/S 752 mmHg 65%
23:00 +19°C° 0 mm 2 m/S 752 mmHg 69%
Mehr zeigen